FW9431 Weather Reports


time (UTC)temp
C
wind
direction
speed
KPH
gust
KPH
rain 1hr
cm
rain 24hr
cm
rain mn
cm
humidity
%
barometer
mb
20260510190856 18 344 1.6 4.8 0.00 0.00 0.00 42 1015.5
20260510190354 18 333 1.6 8.0 0.00 0.00 0.00 45 1015.5
20260510185850 18 344 4.8 4.8 0.00 0.00 0.00 44 1015.4
20260510185348 18 338 0.0 8.0 0.00 0.00 0.00 43 1015.2
20260510184845 18 276 8.0 11.3 0.00 0.00 0.00 46 1015.4
20260510184342 18 330 4.8 11.3 0.00 0.00 0.00 45 1015.5
20260510183841 18 237 8.0 12.9 0.00 0.00 0.00 44 1015.2
20260510183338 18 215 4.8 11.3 0.00 0.00 0.00 45 1015.1
20260510182833 17 5 4.8 8.0 0.00 0.00 0.00 45 1015.3
20260510182330 17 336 1.6 4.8 0.00 0.00 0.00 45 1015.3
20260510181826 17 44 4.8 12.9 0.00 0.00 0.00 46 1015.4
20260510181323 18 56 8.0 9.7 0.00 0.00 0.00 46 1015.4
20260510180819 17 26 1.6 9.7 0.00 0.00 0.00 45 1015.4
20260510180316 18 49 6.4 9.7 0.00 0.00 0.00 43 1015.5
20260510175814 18 352 0.0 1.6 0.00 0.00 0.00 45 1015.1
20260510175309 18 334 1.6 4.8 0.00 0.00 0.00 43 1014.8
20260510174806 18 342 1.6 8.0 0.00 0.00 0.00 47 1014.7
20260510174303 17 25 6.4 8.0 0.00 0.00 0.00 45 1014.9
20260510173800 17 40 6.4 9.7 0.00 0.00 0.00 46 1015.0
20260510173255 17 53 6.4 8.0 0.00 0.00 0.00 50 1015.3
20260510172750 18 52 3.2 4.8 0.00 0.00 0.00 46 1015.0
20260510172247 17 352 3.2 8.0 0.00 0.00 0.00 46 1015.2
20260510171744 17 330 3.2 11.3 0.00 0.00 0.00 44 1015.1
20260510171242 17 320 3.2 11.3 0.00 0.00 0.00 43 1015.2
20260510170739 17 342 1.6 4.8 0.00 0.00 0.00 42 1015.1
20260510170235 17 354 1.6 9.7 0.00 0.00 0.00 46 1014.9
20260510165730 17 18 6.4 9.7 0.00 0.00 0.00 44 1015.2
20260510165226 18 75 3.2 8.0 0.00 0.00 0.00 42 1015.0
20260510164724 18 358 1.6 4.8 0.00 0.00 0.00 42 1015.2
20260510164221 17 355 3.2 4.8 0.00 0.00 0.00 42 1015.3
20260510163716 17 13 1.6 8.0 0.00 0.00 0.00 44 1015.0
20260510163212 17 15 3.2 8.0 0.00 0.00 0.00 46 1015.2
20260510162711 17 23 3.2 8.0 0.00 0.00 0.00 45 1015.3
20260510162209 17 0 0.0 9.7 0.00 0.00 0.00 43 1015.1
20260510161705 17 343 1.6 8.0 0.00 0.00 0.00 44 1015.4
20260510161201 17 84 8.0 12.9 0.00 0.00 0.00 42 1015.1
20260510160659 17 346 3.2 8.0 0.00 0.00 0.00 44 1015.3
20260510160159 17 351 8.0 12.9 0.00 0.00 0.00 43 1015.1
20260510155655 17 344 1.6 8.0 0.00 0.00 0.00 46 1015.0
20260510155151 17 348 0.0 3.2 0.00 0.00 0.00 46 1014.8
20260510154646 17 1 1.6 8.0 0.00 0.00 0.00 51 1014.9
20260510154143 16 332 1.6 3.2 0.00 0.00 0.00 50 1014.6
20260510153638 16 24 3.2 4.8 0.00 0.00 0.00 49 1014.8
20260510153135 16 38 1.6 9.7 0.00 0.00 0.00 49 1014.9
20260510152631 16 15 3.2 4.8 0.00 0.00 0.00 54 1014.5
20260510152127 16 4 1.6 4.8 0.00 0.00 0.00 52 1014.7
20260510151624 16 346 4.8 4.8 0.00 0.00 0.00 52 1014.5
20260510151123 16 349 3.2 4.8 0.00 0.00 0.00 55 1014.6
20260510150622 15 31 1.6 8.0 0.00 0.00 0.00 55 1014.5
20260510150118 15 1 0.0 8.0 0.00 0.00 0.00 57 1014.4
20260510145615 15 345 1.6 8.0 0.00 0.00 0.00 57 1014.5
20260510145111 15 26 3.2 8.0 0.00 0.00 0.00 58 1014.2
20260510144608 15 39 4.8 8.0 0.00 0.00 0.00 57 1014.3
20260510144104 15 13 3.2 8.0 0.00 0.00 0.00 57 1014.2
20260510143559 14 5 0.0 3.2 0.00 0.00 0.00 58 1014.0
20260510143056 15 13 6.4 8.0 0.00 0.00 0.00 58 1014.0
20260510142553 14 342 3.2 8.0 0.00 0.00 0.00 57 1014.0
20260510142049 15 47 3.2 11.3 0.00 0.00 0.00 58 1013.9
20260510141546 14 343 3.2 4.8 0.00 0.00 0.00 59 1014.0
20260510141044 13 347 4.8 8.0 0.00 0.00 0.00 59 1013.8
20260510140540 15 75 4.8 9.7 0.00 0.00 0.00 58 1013.8
20260510140039 13 38 1.6 4.8 0.00 0.00 0.00 61 1013.8
20260510135535 13 5 3.2 3.2 0.00 0.00 0.00 60 1013.9
20260510135032 12 12 1.6 3.2 0.00 0.00 0.00 63 1013.8
20260510134529 12 6 1.6 8.0 0.00 0.00 0.00 62 1013.6
20260510134026 12 16 3.2 4.8 0.00 0.00 0.00 62 1013.6
20260510133522 12 0 1.6 8.0 0.00 0.00 0.00 63 1013.7
20260510133018 13 18 3.2 4.8 0.00 0.00 0.00 64 1013.6
20260510132515 12 323 0.0 1.6 0.00 0.00 0.00 63 1013.7
20260510132012 12 338 3.2 4.8 0.00 0.00 0.00 63 1013.5
20260510131509 12 347 1.6 4.8 0.00 0.00 0.00 65 1013.4
20260510131007 12 352 0.0 4.8 0.00 0.00 0.00 66 1013.1
20260510130502 12 28 1.6 3.2 0.00 0.00 0.00 66 1013.3
20260510130000 12 10 3.2 4.8 0.00 0.00 0.00 66 1013.2
20260510125456 12 37 1.6 3.2 0.00 0.00 0.00 66 1013.4
20260510124953 12 351 0.0 1.6 0.00 0.00 0.00 68 1013.2
20260510124449 12 12 0.0 1.6 0.00 0.00 0.00 68 1013.2
20260510123946 12 9 3.2 3.2 0.00 0.00 0.00 69 1012.9
20260510123442 12 346 0.0 3.2 0.00 0.00 0.00 71 1012.7
20260510122938 11 4 4.8 4.8 0.00 0.00 0.00 70 1012.7
20260510122433 12 352 1.6 1.6 0.00 0.00 0.00 71 1012.8
20260510121929 11 0 0.0 1.6 0.00 0.00 0.00 73 1012.8
20260510121427 11 352 0.0 0.0 0.00 0.00 0.00 73 1012.8
20260510120924 12 354 0.0 1.6 0.00 0.00 0.00 74 1012.5
20260510120421 12 350 0.0 0.0 0.00 0.00 0.00 75 1012.8
20260510115917 12 18 0.0 1.6 0.00 0.00 0.00 72 1012.3
20260510115414 12 7 0.0 1.6 0.00 0.00 0.00 72 1012.4
20260510114910 12 8 0.0 1.6 0.00 0.00 0.00 70 1012.4
20260510114408 12 354 1.6 1.6 0.00 0.00 0.00 70 1012.5
20260510113902 12 1 0.0 4.8 0.00 0.00 0.00 70 1012.4
20260510113359 12 341 1.6 4.8 0.00 0.00 0.00 70 1012.4
20260510112856 12 324 3.2 4.8 0.00 0.00 0.00 70 1012.0
20260510112353 12 12 1.6 9.7 0.00 0.00 0.00 69 1012.0
20260510111848 12 13 1.6 8.0 0.00 0.00 0.00 69 1011.8
20260510111345 12 349 1.6 4.8 0.00 0.00 0.00 69 1011.8
20260510110840 12 357 1.6 3.2 0.00 0.00 0.00 70 1011.8
20260510110337 12 9 0.0 4.8 0.00 0.00 0.00 70 1011.8
20260510105834 12 349 0.0 8.0 0.00 0.00 0.00 72 1011.7
20260510105333 12 351 3.2 4.8 0.00 0.00 0.00 73 1011.6
20260510104830 12 347 0.0 3.2 0.00 0.00 0.00 74 1011.3
20260510104327 12 358 3.2 4.8 0.00 0.00 0.00 77 1011.1
20260510103823 12 353 0.0 1.6 0.00 0.00 0.00 79 1011.0
20260510103320 12 350 0.0 0.0 0.00 0.00 0.00 79 1010.9
20260510102815 12 353 0.0 3.2 0.00 0.00 0.00 79 1010.7
20260510102312 12 346 0.0 0.0 0.00 0.00 0.00 79 1010.9
20260510101809 12 350 0.0 1.6 0.00 0.00 0.00 78 1010.5
20260510101307 12 11 3.2 3.2 0.00 0.00 0.00 78 1010.4
20260510100803 12 357 0.0 0.0 0.00 0.00 0.00 78 1010.3
20260510100301 12 349 0.0 1.6 0.00 0.00 0.00 78 1010.3
20260510095756 12 342 0.0 1.6 0.00 0.00 0.00 79 1010.2
20260510095251 12 348 0.0 0.0 0.00 0.00 0.00 79 1010.5
20260510094750 12 348 0.0 0.0 0.00 0.00 0.00 78 1010.4
20260510094246 12 347 0.0 1.6 0.00 0.00 0.00 78 1010.0
20260510093742 13 346 0.0 1.6 0.00 0.00 0.00 78 1010.1
20260510093239 13 351 0.0 1.6 0.00 0.00 0.00 77 1010.1
20260510092735 13 348 0.0 1.6 0.00 0.00 0.00 76 1010.0
20260510092231 13 344 0.0 3.2 0.00 0.00 0.00 76 1009.9
20260510091727 13 348 0.0 1.6 0.00 0.00 0.00 76 1009.4
20260510091224 13 349 0.0 3.2 0.00 0.00 0.00 77 1009.3
20260510090720 13 333 1.6 4.8 0.00 0.00 0.00 79 1009.7
20260510090218 13 336 3.2 4.8 0.00 0.00 0.00 82 1009.2
20260510085713 12 338 0.0 1.6 0.00 0.00 0.00 83 1009.1
20260510085208 13 348 0.0 1.6 0.00 0.00 0.00 82 1009.2
20260510084704 13 347 0.0 1.6 0.00 0.00 0.00 81 1008.9
20260510084201 13 354 0.0 0.0 0.00 0.00 0.00 79 1008.8
20260510083658 13 28 1.6 1.6 0.00 0.00 0.00 79 1008.6
20260510083155 13 309 1.6 3.2 0.00 0.00 0.00 78 1008.6
20260510082650 13 356 0.0 1.6 0.00 0.00 0.00 78 1008.5
20260510082146 14 341 0.0 1.6 0.00 0.00 0.00 77 1008.4
20260510081641 14 332 0.0 3.2 0.00 0.00 0.00 78 1008.5
20260510081138 14 342 0.0 0.0 0.00 0.00 0.00 77 1008.3
20260510080637 15 352 0.0 0.0 0.00 0.00 0.00 76 1008.3
20260510080134 15 354 0.0 0.0 0.00 0.00 0.00 75 1008.1
20260510075631 15 345 0.0 1.6 0.00 0.00 0.00 74 1008.4
20260510075128 15 284 3.2 3.2 0.00 0.00 0.00 73 1008.2
20260510074625 15 325 1.6 1.6 0.00 0.00 0.00 73 1008.2
20260510074120 15 344 0.0 1.6 0.00 0.00 0.00 72 1008.3
20260510073617 15 294 1.6 8.0 0.00 0.00 0.00 71 1008.5
20260510073114 15 326 3.2 4.8 0.00 0.00 0.00 71 1008.3
20260510072610 15 317 6.4 9.7 0.00 0.00 0.00 72 1008.5
20260510072107 15 246 4.8 4.8 0.00 0.00 0.00 72 1008.3
20260510071603 15 347 1.6 1.6 0.00 0.00 0.00 72 1007.9
20260510071101 15 347 1.6 1.6 0.00 0.00 0.00 72 1008.4
20260510070557 16 344 0.0 3.2 0.00 0.00 0.00 71 1008.5
20260510070055 16 16 0.0 4.8 0.00 0.00 0.00 69 1008.6
20260510065551 16 299 1.6 4.8 0.00 0.00 0.00 69 1008.5
20260510065047 16 323 1.6 4.8 0.00 0.00 0.00 68 1008.6
20260510064543 16 272 3.2 4.8 0.00 0.00 0.00 69 1008.1
20260510064040 16 347 0.0 9.7 0.00 0.00 0.00 69 1008.3
20260510063537 16 357 3.2 8.0 0.00 0.00 0.00 71 1008.2
20260510063034 16 231 4.8 12.9 0.00 0.00 0.00 72 1008.6
20260510062530 16 318 3.2 9.7 0.00 0.00 0.00 73 1008.6
20260510062025 16 26 1.6 4.8 0.00 0.00 0.00 74 1008.6
20260510061522 16 235 6.4 8.0 0.00 0.00 0.00 75 1008.7
20260510061019 16 309 1.6 9.7 0.00 0.00 0.00 76 1008.7
20260510060515 16 337 8.0 12.9 0.00 0.00 0.00 75 1008.5
20260510060011 16 319 1.6 12.9 0.00 0.00 0.00 76 1008.6
20260510055507 16 254 1.6 8.0 0.00 0.00 0.00 77 1008.8
20260510055006 16 359 3.2 9.7 0.00 0.00 0.00 77 1008.7
20260510054501 16 329 4.8 8.0 0.00 0.00 0.00 77 1008.7
20260510053956 16 338 3.2 4.8 0.00 0.00 0.00 76 1008.4
20260510053451 16 261 1.6 8.0 0.00 0.00 0.00 76 1008.6
20260510052948 16 351 1.6 3.2 0.00 0.00 0.00 76 1008.6
20260510052444 16 332 1.6 4.8 0.00 0.00 0.00 76 1008.2
20260510051940 16 53 1.6 4.8 0.00 0.00 0.00 75 1008.4
20260510051437 16 262 1.6 9.7 0.00 0.00 0.00 74 1008.2
20260510050933 16 237 3.2 8.0 0.00 0.00 0.00 74 1008.1
20260510050430 16 332 1.6 8.0 0.00 0.00 0.00 74 1008.2
20260510045927 16 210 3.2 12.9 0.00 0.00 0.00 73 1008.3
20260510045424 16 219 3.2 4.8 0.00 0.00 0.00 73 1008.3
20260510044921 16 268 1.6 8.0 0.00 0.00 0.00 73 1008.2
20260510044418 16 347 3.2 8.0 0.00 0.00 0.00 73 1008.0
20260510043915 16 228 3.2 9.7 0.00 0.00 0.00 72 1008.0
20260510043411 16 314 1.6 12.9 0.00 0.00 0.00 72 1007.9
20260510042909 16 254 3.2 9.7 0.00 0.00 0.00 72 1008.1
20260510042404 16 225 4.8 8.0 0.00 0.00 0.00 71 1007.8
20260510041900 16 270 6.4 8.0 0.00 0.00 0.00 70 1008.0
20260510041358 16 112 1.6 4.8 0.00 0.00 0.00 70 1007.9
20260510040855 16 301 1.6 4.8 0.00 0.00 0.00 70 1007.9
20260510040352 16 163 3.2 8.0 0.00 0.00 0.00 69 1007.9
20260510035847 16 309 1.6 8.0 0.00 1.12 1.12 69 1007.8
20260510035343 16 186 4.8 4.8 0.00 1.12 1.12 69 1007.7
20260510034839 16 319 3.2 3.2 0.00 1.12 1.12 69 1007.8
20260510034337 16 355 1.6 3.2 0.00 1.12 1.12 69 1007.8
20260510033833 16 32 3.2 4.8 0.00 1.12 1.12 69 1007.6
20260510033330 16 343 4.8 4.8 0.00 1.12 1.12 69 1007.5
20260510032827 16 339 1.6 3.2 0.00 1.12 1.12 68 1007.6
20260510032324 16 355 1.6 3.2 0.00 1.12 1.12 68 1007.7
20260510031819 16 6 1.6 3.2 0.00 1.12 1.12 68 1007.5
20260510031315 16 292 1.6 4.8 0.00 1.12 1.12 68 1007.6
20260510030809 17 282 3.2 4.8 0.00 1.12 1.12 68 1007.5
20260510030306 17 15 1.6 3.2 0.00 1.12 1.12 68 1007.5
20260510025803 17 4 1.6 3.2 0.00 1.12 1.12 67 1007.4
20260510025301 17 328 1.6 3.2 0.00 1.12 1.12 67 1007.6
20260510024757 17 202 1.6 4.8 0.00 1.12 1.12 67 1007.7
20260510024254 17 350 1.6 1.6 0.00 1.12 1.12 68 1007.6
20260510023750 16 285 1.6 3.2 0.00 1.12 1.12 69 1007.6
20260510023247 17 7 1.6 3.2 0.00 1.12 1.12 68 1007.3
20260510022743 16 167 3.2 4.8 0.00 1.12 1.12 68 1007.4
20260510022243 16 329 1.6 4.8 0.00 1.12 1.12 68 1007.5
20260510021743 17 349 0.0 3.2 0.00 1.12 1.12 68 1007.3
20260510021241 17 322 0.0 8.0 0.00 1.12 1.12 68 1007.1
20260510020736 16 345 1.6 3.2 0.00 1.12 1.12 68 1007.2
20260510020231 17 345 0.0 1.6 0.00 1.12 1.12 68 1007.1
20260510015728 17 272 1.6 3.2 0.00 1.12 1.12 67 1007.1
20260510015224 17 336 0.0 4.8 0.00 1.12 1.12 67 1006.9
20260510014719 17 330 1.6 3.2 0.00 1.12 1.12 67 1006.8
20260510014217 17 331 1.6 1.6 0.00 1.12 1.12 67 1006.7
20260510013712 17 4 0.0 1.6 0.00 1.12 1.12 66 1007.0
20260510013208 17 333 1.6 3.2 0.00 1.12 1.12 65 1006.6
20260510012708 17 338 1.6 1.6 0.00 1.12 1.12 64 1006.3
20260510012203 17 235 3.2 3.2 0.00 1.12 1.12 65 1006.4
20260510011658 17 319 1.6 3.2 0.00 1.12 1.12 64 1006.4
20260510011154 17 355 0.0 3.2 0.00 1.12 1.12 64 1006.4
20260510010650 18 4 1.6 1.6 0.00 1.12 1.12 64 1006.4
20260510010148 18 222 0.0 1.6 0.00 1.12 1.12 63 1006.1
20260510005643 18 16 1.6 1.6 0.00 1.12 1.12 63 1006.3
20260510005141 18 345 0.0 4.8 0.00 1.12 1.12 62 1006.3
20260510004639 18 351 0.0 4.8 0.00 1.12 1.12 62 1006.1
20260510004137 18 348 3.2 8.0 0.00 1.12 1.12 60 1006.0
20260510003634 19 239 3.2 4.8 0.00 1.12 1.12 59 1005.9
20260510003129 19 59 4.8 8.0 0.00 1.12 1.12 59 1006.1
20260510002629 19 280 4.8 4.8 0.00 1.12 1.12 58 1005.9
20260510002127 20 322 3.2 3.2 0.00 1.12 1.12 58 1005.7
20260510001623 20 342 1.6 3.2 0.00 1.12 1.12 58 1005.7
20260510001122 20 208 4.8 8.0 0.00 1.12 1.12 56 1005.5
20260510000622 20 296 3.2 9.7 0.00 1.12 1.12 55 1005.6
20260510000120 20 227 1.6 11.3 0.00 1.12 1.12 56 1005.6
20260509235616 20 186 6.4 12.9 0.00 1.12 1.12 55 1005.6
20260509235113 20 352 0.0 9.7 0.00 1.12 1.12 54 1005.5
20260509234608 20 314 1.6 4.8 0.00 1.12 1.12 54 1005.6
20260509234107 20 323 1.6 8.0 0.00 1.12 1.12 54 1005.5
20260509233604 21 298 3.2 8.0 0.00 1.12 1.12 55 1005.6
20260509233101 21 355 1.6 3.2 0.00 1.12 1.12 54 1005.6
20260509232557 21 340 3.2 9.7 0.00 1.12 1.12 54 1005.2
20260509232054 21 189 4.8 8.0 0.00 1.12 1.12 54 1005.2
20260509231551 21 99 4.8 11.3 0.00 1.12 1.12 53 1005.2
20260509231049 21 270 3.2 14.5 0.00 1.12 1.12 54 1005.4
20260509230545 21 109 6.4 14.5 0.00 1.12 1.12 52 1005.3
20260509230043 21 194 6.4 11.3 0.00 1.12 1.12 53 1005.3
20260509225538 21 279 8.0 20.9 0.00 1.12 1.12 52 1005.3
20260509225033 21 210 4.8 11.3 0.00 1.12 1.12 53 1005.4
20260509224529 21 239 3.2 11.3 0.00 1.12 1.12 52 1005.3
20260509224026 21 161 3.2 8.0 0.00 1.12 1.12 53 1005.2
20260509223523 21 233 8.0 12.9 0.00 1.12 1.12 51 1005.1
20260509223021 21 167 8.0 12.9 0.00 1.12 1.12 51 1005.1
20260509222517 21 278 4.8 11.3 0.00 1.12 1.12 51 1005.1
20260509222012 21 226 8.0 11.3 0.00 1.12 1.12 52 1005.0
20260509221508 21 202 4.8 11.3 0.00 1.12 1.12 52 1005.2
20260509221004 21 310 8.0 12.9 0.00 1.12 1.12 52 1005.1
20260509220501 21 286 6.4 9.7 0.00 1.12 1.12 55 1005.2
20260509215956 21 198 4.8 14.5 0.00 1.12 1.12 54 1005.2
20260509215452 21 157 6.4 11.3 0.00 1.12 1.12 53 1005.5
20260509214950 21 291 4.8 22.5 0.00 1.12 1.12 53 1005.6
20260509214447 21 272 1.6 11.3 0.00 1.12 1.12 54 1005.3
20260509213943 21 59 1.6 12.9 0.00 1.12 1.12 54 1005.3
20260509213440 21 235 4.8 20.9 0.00 1.12 1.12 54 1005.8
20260509212937 21 353 4.8 12.9 0.00 1.12 1.12 57 1005.5
20260509212434 21 183 9.7 20.9 0.00 1.12 1.12 55 1005.5
20260509211930 21 248 8.0 16.1 0.00 1.12 1.12 55 1005.7
20260509211426 21 200 11.3 12.9 0.00 1.12 1.12 54 1005.6
20260509210923 21 344 3.2 9.7 0.00 1.12 1.12 55 1005.5
20260509210420 21 163 6.4 14.5 0.00 1.12 1.12 54 1005.6
20260509205916 21 209 4.8 16.1 0.00 1.12 1.12 53 1005.7
20260509205415 21 194 4.8 17.7 0.00 1.12 1.12 54 1005.6
20260509204912 21 258 8.0 12.9 0.00 1.12 1.12 53 1005.7
20260509204408 21 151 12.9 17.7 0.00 1.12 1.12 54 1005.6
20260509203904 21 146 6.4 12.9 0.00 1.12 1.12 54 1005.7
20260509203400 21 244 11.3 17.7 0.00 1.12 1.12 55 1005.7
20260509202858 21 176 8.0 14.5 0.00 1.12 1.12 54 1005.9
20260509202354 21 210 8.0 12.9 0.00 1.12 1.12 56 1005.8
20260509201849 21 260 4.8 27.4 0.00 1.12 1.12 58 1005.6
20260509201345 21 282 4.8 11.3 0.00 1.12 1.12 57 1005.6
20260509200842 20 174 8.0 27.4 0.00 1.12 1.12 57 1006.1
20260509200337 20 254 3.2 14.5 0.00 1.12 1.12 58 1006.1
20260509195834 20 123 3.2 8.0 0.00 1.12 1.12 60 1006.0
20260509195334 20 107 3.2 9.7 0.00 1.12 1.12 58 1006.3
20260509194833 20 280 4.8 14.5 0.00 1.12 1.12 60 1006.1
20260509194330 21 69 4.8 14.5 0.00 1.12 1.12 60 1006.3
20260509193826 20 170 6.4 14.5 0.00 1.12 1.12 58 1006.3
20260509193321 20 343 1.6 11.3 0.00 1.12 1.12 60 1006.3
20260509192817 20 256 6.4 11.3 0.00 1.12 1.12 60 1006.4
20260509192313 20 235 8.0 11.3 0.00 1.12 1.12 59 1006.6
20260509191808 20 251 4.8 14.5 0.00 1.12 1.12 60 1006.4
20260509191305 20 156 3.2 12.9 0.00 1.12 1.12 61 1006.6